Погода в Боргустанской

Россия / Ставропольский край     44°03′13″N   42°31′51″E
В апреле 2022 года жителям России запретили посещать сайт meteo.paraplan.net по решению Генеральной прокуратуры. Аудитория сайта уменьшилась в 10 раз. Владельцы сайта не видят смысла в поддержке погодного сервера в таких условиях. Сайт будет закрыт в октябре.
темп.,
°C
ветер,
м/с
пор.,
м/с
влажн.,
%
обл.,
%
осадки,
мм/ч
давл.,
гПа
погр.,
м
3 октября, пн
пн300:00+17ююз2235100 0.0 100414
03:00+12з4974100 0.0 1007302
06:00+13зсз3576100 0.0 1009135
09:00+12ссз2494100 2.6 1012374
12:00+10ссз2393100 0.5 1015525
15:00+11ссв1187100 0.6 1016590
18:00+10в1288100 0.0 1016282
21:00+10в2589100 0.0 1016425
4 октября, вт
вт400:00+10вюв2490100 0.0 1015243
03:00+9вюв2295100 0.0 101456
06:00+10ююв1295100 0.1 101447
09:00+13ссв2179100 0.3 1014224
12:00+17с3266100 0.0 1014747
15:00+15ссз3372100 0.4 1016820
18:00+13св1183100 0.3 101826
21:00+12св2294100 1.1 101840
5 октября, ср
ср500:00+12ююз1195100 2.9 101923
03:00+11з2297100 3.4 102037
06:00+11юв229316 0.0 101957
09:00+13сз2293100 0.1 1021421
12:00+10зсз4889100 1.1 1023474
15:00+11з2392100 5.4 1023276
18:00+10ю1295100 11.1 1024108
21:00+9св2198100 27.3 102474
6 октября, чт
чт600:00+9с2497100 17.6 1024218
03:00+9ю1186100 18.8 102512
06:00+10сз1183100 0.0 102517
09:00+9ссв1193100 0.1 1025141
12:00+9св1194100 0.2 1025174
15:00+11в2286100 0.3 1024474
18:00+9в2297100 0.1 1026108
21:00+9вюв1197100 0.1 102638
7 октября, пт
пт700:00+9в1196100 0.0 102650
03:00+8в119959 0.0 102513
06:00+8вюв229575 0.0 102572
09:00+10в238368 0.0 1024503
12:00+14в437151 0.0 1023803
15:00+13в547473 0.0 1022673
18:00+9в34945 0.0 102397
21:00+8юв229614 0.0 102327